map of NVT home
Great Circle Mapper logo
NVT - Airport
Location
City:  Navegantes, Santa Catarina, Brazil
Name:Ministro Victor Konder International Airport
ICAO / IATA:SBNF / NVT

Details
Type:Airport (Aerodrome, Airfield)
Use:International (customs port of entry)
Latitude:2652'48"S (-26.879998)
Longitude:4839'05"W (-48.651389)
Datum:WGS 1984
Elevation:18 ft (5 m)
Variation:19.15W (WMM2015 magnetic declination)
-0.14 annual change
Runways:1
Longest:5581 × 148 ft (1701 × 45 m), paved

Time
Time Zone:UTC-3 (DST-2)
Local Time:

Weather
METAR:SBNF 192200Z 10002KT 8000 FEW012 BKN020 25/23 Q1013
TAF:SBNF 191500Z 1918/2018 09006KT 9999 SCT020 TX28/1918Z TN22/2008Z PROB40
TEMPO1920/2006 5000 TSRA BKN010 FEW030CB
RMK PCF

Related Locations
Nearby:
Farthest:KTD: 12365 mi / 19900 km
Kitadaito, Kita Daito Island, JP

Find:

   beyond  
but within

Other Information
Maps:
NOTAMs:
Links:
Sources:

  
flag of Brazil
flag of Santa Catarina
  

Sectional Chart

Flight Planning
at skyvector.com

Satellite Image

Google Maps Satellite View

 

Copyright © 2004-2015 Karl L. Swartz. All rights reserved.
The Great Circle Mapper name and logo are trademarks of the Great Circle Mapper.
All other trademarks mentioned herein belong to their respective owners.
Please see credits for attibutions and further copyright information.

  Follow gcmap on Facebook Follow gcmap on Twitter Follow gcmap on Google+

hCard Microformat

Geo Microformat